Weather in Hovtva

Ukraine / Poltava Region     49°25′08″N   33°53′13″E
temp.,
°C
wind,
m/s
gust,
m/s
humid.,
%
clouds,
%
prec.,
mm/h
press.,
hPa
HPBL,
m
24 june, thu
thu2400:00+23ene387899 0.0 1015131
03:00+23ne367884 0.0 1016121
06:00+21ne4107847 0.0 1015171
09:00+27ene586190 0.0 1015349
12:00+31e6946100 0.0 10151047
15:00+31e584872 0.0 10151062
18:00+30ese4860100 0.0 1016378
21:00+25e2274100 0.0 101613
25 june, fri
fri2500:00+23e227520 0.0 101513
03:00+22ne348378 0.0 101558
06:00+22ene36855 0.0 1015126
09:00+27ene476623 0.0 1015420
12:00+30ene575698 0.0 10141029
15:00+30ene246497 0.0 1014273
18:00+28nne486892 0.0 1013167
21:00+25ene47770 0.0 1012107
26 june, sat
sat2600:00+24ene33765 0.0 101243
03:00+22ne33855 0.0 101237
06:00+22ne36895 0.0 1012127
09:00+28ne46692 0.0 1011442
12:00+31ne45544 0.0 10111263
15:00+33ne454544 0.0 10111855
18:00+31e47560 0.0 1009451
21:00+26ene33720 0.0 100943
27 june, sun
sun2700:00+24ene35795 0.0 101077
03:00+22e34903 0.2 101049
06:00+22ne368883 0.0 1010150
09:00+24ne578087 0.3 1010253
12:00+31nne455434 0.0 10091552
15:00+23nnw81182100 2.6 1010448
18:00+22nne61186100 5.5 1009315
21:00+21nw249484 6.4 100992
28 june, mon
mon2800:00+20w3697100 5.4 1010174
03:00+19n3797100 6.0 1008194
06:00+19nw1296100 0.0 1009101
09:00+22nw4485100 0.0 1009548
12:00+24nw447699 0.0 1010855
15:00+23nw788190 0.1 1010780
18:00+21nw61086100 0.9 1010633
21:00+18nw61294100 1.9 1010447